Flag for China Weather past 2 weeks in Chengdu, Sichuan, China

Now
68 °F

Sprinkles. Fog.


Feels Like: 68 °F
Forecast: 68 / 80 °F
Wind: 3 mph from Southwest

Location: Chengdu Airport

Current Time: Aug 22, 2014 at 10:49:48 AM

Latest Report: Aug 22, 2014 at 10:00 AM


Visibility: 2 mi

Pressure: 29.95 "Hg

Humidity: 88%

Dew point: 64 °F

Location of ChengduLocation

Historic Weather in Chengdu — Graph

°F

Chengdu temperature yesterday

Maximum temperature yesterday: 77 °F (at 12:00 AM)
Minimum temperature yesterday: 70 °F (at 5:00 AM)
Average temperature yesterday: 73 °F

Past Weeks' High & Low Weather Summary

 TemperatureHumidityPressure
High93 °F (Aug 14, 4:00 PM)94% (Aug 8, 3:00 PM)29.95 "Hg (Aug 8, 3:00 PM)
Low66 °F (Aug 22, 3:00 AM)33% (Aug 14, 3:00 PM)29.56 "Hg (Aug 7, 4:00 PM)
Average77 °F75%29.77 "Hg
* Reported Aug 7 9:00 AM — Aug 22 9:00 AM, Chengdu, Weather by CustomWeather, © 2014

Note: Actual official high and low records may vary slightly from our data, if they occured in-between our weather recording intervals... More about our weather records

Advertising

Chengdu weather history for previous 24 hours

 ConditionsComfort  
Time TempWeatherWind HumidityBarometerVisibility
9:00 AM
Aug 22
66 °FSprinkles. Fog.3 mph94%29.92 "Hg2 mi
8:00 AM66 °FSprinkles. Fog.3 mph94%29.89 "Hg1 mi
7:00 AM66 °FSprinkles. Fog.3 mph94%29.89 "Hg1 mi
6:00 AM66 °FRain showers. Fog.1 mph94%29.86 "Hg2 mi
5:00 AM66 °FRain showers. Fog.1 mph88%29.86 "Hg2 mi
4:00 AM66 °FRain showers. Passing clouds.No wind88%29.89 "Hg4 mi
3:00 AM66 °FSprinkles. Passing clouds.1 mph88%29.89 "Hg4 mi
2:00 AM68 °FSprinkles. Fog.No wind88%29.89 "Hg3 mi
1:00 AM68 °FSprinkles. Passing clouds.1 mph88%29.89 "Hg4 mi
12:00 AM70 °FSprinkles. Passing clouds.1 mph88%29.89 "Hg4 mi
11:00 PM
Aug 21
70 °FSprinkles. Passing clouds.3 mph88%29.89 "Hg4 mi
10:00 PM70 °FSprinkles. Fog.1 mph88%29.89 "Hg3 mi
9:00 PM72 °FSprinkles. Fog.1 mph88%29.86 "Hg3 mi
8:00 PM73 °FFog.1 mph83%29.83 "Hg3 mi
7:00 PM73 °FFog.1 mph78%29.80 "Hg2 mi
6:00 PM73 °FPartly sunny.1 mph78%29.77 "Hg4 mi
5:00 PM73 °FPartly sunny.3 mph78%29.77 "Hg4 mi
4:00 PM75 °FSprinkles. Fog.6 mph74%29.77 "Hg3 mi
3:00 PM75 °FSprinkles. Fog.1 mph78%29.77 "Hg3 mi
2:00 PM73 °FSprinkles. Fog.1 mph78%29.80 "Hg3 mi
1:00 PM73 °FSprinkles. Fog.3 mph83%29.80 "Hg3 mi
12:00 PM73 °FSprinkles. Fog.3 mph78%29.80 "Hg3 mi
11:00 AM72 °FSprinkles. Scattered clouds.3 mph83%29.83 "Hg4 mi
10:00 AM72 °FSprinkles. Scattered clouds.8 mph78%29.83 "Hg5 mi
Weather by CustomWeather, © 2014

See weather overviewHow to use our weather pages